User: anonymous   Login
Location: Carthage
(33.8834°N, 106.6595°W)
Time: 05:28:53
(UTC+00:00)
Language:

Cosmos 1674 Rocket - Orbit

View from above orbital plane
View from above orbital plane
View from above satellite
View from above satellite

Ground track
Ground track

The orbit is defined by the following mean orbital elements,

1 15945U          26100.18187609 +.00000000 +00000-0 +48441-4 0 00001
2 15945  82.5298 355.3292 0020362  88.1762 272.1787 14.86468599    08
Epoch (UTC): 10 April 2026 04:21:54
Eccentricity: 0.0020362
inclination: 82.5298°
perigee height: 595 km
apogee height: 623 km
right ascension of ascending node: 355.3292°
argument of perigee: 88.1762°
revolutions per day: 14.86468599
mean anomaly at epoch: 272.1787°

The dashed part of the orbit path shows where the satellite is in the earth's shadow,  

DLR